星链-34174 (STARLINK-34174)

导读 | 豆包AI

STARLINK-34174是美国(US)于2025年5月23日发射的星链卫星,隶属于SpaceX公司的星链星座项目。该项目旨在搭建全球卫星互联网,为地面偏远等地区提供高速网络接入服务,这颗卫星加入星座后,将助力拓展星链系统的服务覆盖范围与网络容量。

基本信息
目录编号:
64097
目录名称:
STARLINK-34174
国际标识:
2025-110B
轨道中心:
EARTH
卫星名称:
星链-34174
卫星全名:
星链-34174 (STARLINK-34174)
卫星状态:
在轨 (已飞行341 天)
发射日期:
2025-05-23 UTC
国别 :
美国 (US)
星等 :
--
轨道信息
数据来源 国际轨道数据 AOE轨道数据
星历时间 2026-04-29T14:21:22+0800
11小时前
查看轨道信息
2026-04-29T02:00:00+0800
23小时前
查看轨道信息
半长轴 6853.336km 6853.38km
偏心率 0.0001473 0.0001616
轨道倾角 53.160° 53.158°
近地点辐角 87.073° 62.378°
升交点赤经 151.998° 154.392°
平近点角 273.044° 340.055°
近地点 474.189km 474.135km
远地点 476.209km 476.351km
周期 94.105分钟 94.106分钟
每日圈数 15.302057 15.301909
详细信息
固有亮度:
5
最大亮度:
2.5
卫星平台:
Starlink V1.0
覆盖范围:
全球
运营商:
太空探索技术公司
运营商所在国:
美国
制造商(研发单位):
太空探索技术公司
制造商所在国:
美国
使用方式:
暂无
卫星简介
Starlink 计划是 SpaceX 推出的全球卫星互联网项目,通过发射低轨道卫星,为全球尤其是偏远地区提供高速、低延迟的互联网服务。自 2019 年起,Starlink 已部署数千颗卫星,旨在缩小全球数字鸿沟,推动互联网普及。该项目还为军事、航空等行业提供通信支持,带来广泛经济效益。
2D轨道图
3D轨道图
轨道高度分析图
轨道倾角分析图
轨道综合分析图
查看轨道综合分析图